Latest Weather Observations for Kurnell

IDN60801

Issued at 12:05 am EST Tuesday 2 September 2014 (issued every 30 minutes, with the page automatically refreshed every 10 minutes)

About weather observations | Map of weather stations | Latest weather observations for NSW | Other Formats
Station Details ID: 066043 Name: KURNELL AWS Lat: -34.00 Lon: 151.21 Height: 4.0 m
Data from the previous 72 hours. | See also: Recent months for locations in New South Wales
Date/Time
EST
Temp
°C
App
Temp
°C
Dew
Point
Rel
Hum
%
Delta-T
°C
Wind Press
QNH
hPa
Press
MSL
hPa
Rain
since 9 am
mm
Dir
 
Spd
km/h
Gust
km/h
Spd
kts
Gust
kts
02/12:00am - - - - - NNE 9 13 5 7 - - -
 
Date/Time
EST
Temp
°C
App
Temp
°C
Dew
Point
Rel
Hum
%
Delta-T
°C
Wind Press
QNH
hPa
Press
MSL
hPa
Rain
since 9 am
mm
Dir
 
Spd
km/h
Gust
km/h
Spd
kts
Gust
kts
01/11:30pm - - - - - N 11 15 6 8 - - -
01/11:00pm - - - - - N 15 17 8 9 - - -
01/10:30pm - - - - - N 13 19 7 10 - - -
01/10:00pm - - - - - N 13 15 7 8 - - -
01/09:30pm - - - - - N 15 19 8 10 - - -
01/09:00pm - - - - - N 15 19 8 10 - - -
01/08:30pm - - - - - N 9 11 5 6 - - -
01/08:00pm - - - - - N 11 13 6 7 - - -
01/07:30pm - - - - - N 9 11 5 6 - - -
01/07:00pm - - - - - WNW 9 13 5 7 - - -
01/06:30pm - - - - - NE 19 24 10 13 - - -
01/06:00pm - - - - - NE 22 30 12 16 - - -
01/05:30pm - - - - - NE 26 30 14 16 - - -
01/05:00pm - - - - - NE 28 33 15 18 - - -
01/04:30pm - - - - - NE 28 32 15 17 - - -
01/04:00pm - - - - - NE 26 30 14 16 - - -
01/03:30pm - - - - - ENE 17 22 9 12 - - -
01/03:00pm - - - - - ENE 24 28 13 15 - - -
01/02:30pm - - - - - ENE 24 28 13 15 - - -
01/02:00pm - - - - - ENE 19 22 10 12 - - -
01/01:30pm - - - - - ENE 11 13 6 7 - - -
01/01:00pm - - - - - ENE 11 13 6 7 - - -
01/12:30pm - - - - - NNW 11 15 6 8 - - -
01/12:00pm - - - - - NW 9 9 5 5 - - -
01/11:30am - - - - - NNW 6 7 3 4 - - -
01/11:00am - - - - - NNW 7 11 4 6 - - -
01/10:30am - - - - - NW 9 13 5 7 - - -
01/10:00am - - - - - NW 13 17 7 9 - - -
01/09:30am - - - - - NNW 15 17 8 9 - - -
01/09:00am - - - - - NW 19 22 10 12 - - -
01/08:30am - - - - - NW 15 19 8 10 - - -
01/08:00am - - - - - W 19 22 10 12 - - -
01/07:30am - - - - - WNW 17 19 9 10 - - -
01/07:00am - - - - - NW 17 19 9 10 - - -
01/06:30am - - - - - NW 17 20 9 11 - - -
01/06:00am - - - - - NNW 15 20 8 11 - - -
01/05:30am - - - - - NNW 17 20 9 11 - - -
01/05:00am - - - - - N 13 17 7 9 - - -
01/04:30am - - - - - NNW 13 17 7 9 - - -
01/04:00am - - - - - NNW 11 15 6 8 - - -
01/03:30am - - - - - NNW 13 15 7 8 - - -
01/03:00am - - - - - NNW 13 17 7 9 - - -
01/02:30am - - - - - NNW 13 17 7 9 - - -
01/02:00am - - - - - N 11 13 6 7 - - -
01/01:30am - - - - - N 9 11 5 6 - - -
01/01:00am - - - - - NNW 7 9 4 5 - - -
01/12:30am - - - - - N 7 9 4 5 - - -
01/12:00am - - - - - NW 7 9 4 5 - - -
 
Date/Time
EST
Temp
°C
App
Temp
°C
Dew
Point
Rel
Hum
%
Delta-T
°C
Wind Press
QNH
hPa
Press
MSL
hPa
Rain
since 9 am
mm
Dir
 
Spd
km/h
Gust
km/h
Spd
kts
Gust
kts
31/11:30pm - - - - - NNW 7 9 4 5 - - -
31/11:00pm - - - - - W 7 9 4 5 - - -
31/10:30pm - - - - - WSW 9 15 5 8 - - -
31/10:00pm - - - - - W 11 17 6 9 - - -
31/09:30pm - - - - - CALM 0 0 0 0 - - -
31/09:00pm - - - - - CALM 0 0 0 0 - - -
31/08:30pm - - - - - CALM 0 0 0 0 - - -
31/08:00pm - - - - - ENE 4 6 2 3 - - -
31/07:30pm - - - - - ENE 6 7 3 4 - - -
31/07:00pm - - - - - E 7 9 4 5 - - -
31/06:30pm - - - - - E 11 13 6 7 - - -
31/06:00pm - - - - - E 9 13 5 7 - - -
31/05:30pm - - - - - ESE 9 13 5 7 - - -
31/05:00pm - - - - - ESE 13 17 7 9 - - -
31/04:30pm - - - - - SE 17 19 9 10 - - -
31/04:00pm - - - - - SE 17 22 9 12 - - -
31/03:30pm - - - - - SE 17 24 9 13 - - -
31/03:00pm - - - - - SE 17 20 9 11 - - -
31/02:30pm - - - - - SE 17 22 9 12 - - -
31/02:00pm - - - - - SE 17 20 9 11 - - -
31/01:30pm - - - - - SE 19 24 10 13 - - -
31/01:00pm - - - - - SSE 15 20 8 11 - - -
31/12:30pm - - - - - S 17 20 9 11 - - -
31/12:00pm - - - - - S 17 24 9 13 - - -
31/11:30am - - - - - S 15 20 8 11 - - -
31/11:00am - - - - - S 20 26 11 14 - - -
31/10:30am - - - - - SSW 20 26 11 14 - - -
31/10:00am - - - - - W 13 17 7 9 - - -
31/09:30am - - - - - WNW 17 17 9 9 - - -
31/09:00am - - - - - WNW 17 19 9 10 - - -
31/08:30am - - - - - W 19 20 10 11 - - -
31/08:00am - - - - - W 17 20 9 11 - - -
31/07:30am - - - - - W 20 22 11 12 - - -
31/07:00am - - - - - WSW 15 20 8 11 - - -
31/06:30am - - - - - W 17 19 9 10 - - -
31/06:00am - - - - - W 19 22 10 12 - - -
31/05:30am - - - - - W 20 26 11 14 - - -
31/05:00am - - - - - W 15 19 8 10 - - -
31/04:30am - - - - - W 19 22 10 12 - - -
31/04:00am - - - - - W 22 26 12 14 - - -
31/03:30am - - - - - W 17 19 9 10 - - -
31/03:00am - - - - - SW 19 28 10 15 - - -
31/02:30am - - - - - SW 20 30 11 16 - - -
31/02:00am - - - - - SW 20 30 11 16 - - -
31/01:30am - - - - - SW 20 30 11 16 - - -
31/01:00am - - - - - SW 22 30 12 16 - - -
31/12:30am - - - - - SW 26 33 14 18 - - -
31/12:00am - - - - - SW 26 35 14 19 - - -
 
Date/Time
EST
Temp
°C
App
Temp
°C
Dew
Point
Rel
Hum
%
Delta-T
°C
Wind Press
QNH
hPa
Press
MSL
hPa
Rain
since 9 am
mm
Dir
 
Spd
km/h
Gust
km/h
Spd
kts
Gust
kts
30/11:30pm - - - - - SW 28 35 15 19 - - -
30/11:00pm - - - - - SW 30 41 16 22 - - -
30/10:30pm - - - - - SW 30 37 16 20 - - -
30/10:00pm - - - - - SW 32 43 17 23 - - -
30/09:30pm - - - - - SW 24 32 13 17 - - -
30/09:00pm - - - - - SW 28 39 15 21 - - -
30/08:30pm - - - - - SW 28 37 15 20 - - -
30/08:00pm - - - - - SW 28 39 15 21 - - -
30/07:57pm - - - - - SW 30 48 16 26 - - -
30/07:30pm - - - - - SW 26 35 14 19 - - -
30/07:00pm - - - - - SW 30 39 16 21 - - -
30/06:30pm - - - - - SW 28 39 15 21 - - -
30/06:00pm - - - - - SW 33 48 18 26 - - -
30/05:43pm - - - - - SW 30 48 16 26 - - -
30/05:30pm - - - - - SW 33 48 18 26 - - -
30/05:00pm - - - - - SW 30 41 16 22 - - -
30/04:30pm - - - - - SW 33 44 18 24 - - -
30/04:00pm - - - - - SW 37 54 20 29 - - -
30/03:53pm - - - - - SSW 35 54 19 29 - - -
30/03:30pm - - - - - SSW 30 41 16 22 - - -
30/03:00pm - - - - - SW 33 41 18 22 - - -
30/02:30pm - - - - - SW 33 48 18 26 - - -
30/02:00pm - - - - - SW 33 46 18 25 - - -
30/01:30pm - - - - - SSW 37 50 20 27 - - -
30/01:00pm - - - - - SSW 39 54 21 29 - - -
30/12:53pm - - - - - SW 37 56 20 30 - - -
30/12:30pm - - - - - SW 37 48 20 26 - - -
30/12:00pm - - - - - SW 35 46 19 25 - - -
30/11:30am - - - - - SSW 37 52 20 28 - - -
30/11:00am - - - - - SSW 35 50 19 27 - - -
30/10:30am - - - - - SSW 39 54 21 29 - - -
30/10:00am - - - - - SW 39 57 21 31 - - -
30/09:30am - - - - - SSW 39 54 21 29 - - -
30/09:21am - - - - - SW 35 54 19 29 - - -
30/09:00am - - - - - SW 33 50 18 27 - - -
30/08:44am - - - - - SSW 39 57 21 31 - - -
30/08:30am - - - - - SW 37 52 20 28 - - -
30/08:00am - - - - - SW 37 50 20 27 - - -
30/07:43am - - - - - SW 37 56 20 30 - - -
30/07:30am - - - - - SW 37 50 20 27 - - -
30/07:06am - - - - - SSW 33 54 18 29 - - -
30/07:00am - - - - - SW 35 48 19 26 - - -
30/06:30am - - - - - SW 39 52 21 28 - - -
30/06:06am - - - - - SW 37 56 20 30 - - -
30/06:00am - - - - - SW 41 57 22 31 - - -
30/05:30am - - - - - SW 41 63 22 34 - - -
30/05:07am - - - - - SSW 41 59 22 32 - - -
30/05:00am - - - - - SSW 41 57 22 31 - - -
30/04:30am - - - - - SSW 43 61 23 33 - - -
30/04:03am - - - - - SSW 44 63 24 34 - - -
30/04:00am - - - - - SSW 44 57 24 31 - - -
30/03:35am - - - - - SSW 46 69 25 37 - - -
30/03:30am - - - - - SSW 46 63 25 34 - - -
30/03:28am - - - - - SSW 44 63 24 34 - - -
30/03:00am - - - - - SSW 41 56 22 30 - - -
30/02:41am - - - - - SSW 41 59 22 32 - - -
30/02:30am - - - - - SSW 41 56 22 30 - - -
30/02:00am - - - - - SSW 41 59 22 32 - - -
30/01:37am - - - - - SSW 39 59 21 32 - - -
30/01:30am - - - - - SSW 37 52 20 28 - - -
30/01:23am - - - - - SSW 39 57 21 31 - - -
30/01:00am - - - - - SSW 44 59 24 32 - - -
30/12:39am - - - - - SSW 39 59 21 32 - - -
30/12:30am - - - - - SSW 41 56 22 30 - - -

Other Formats:

Comma delimited format used in spreadsheet applications
http://www.bom.gov.au/fwo/IDN60801/IDN60801.95756.axf

JavaScript Object Notation format (JSON) in row-major order
http://www.bom.gov.au/fwo/IDN60801/IDN60801.95756.json